Location: Seattle
(47.6064°N, 122.3308°W)
Time: 04:12:36
(UTC-08:00)

S-56A Canister/Altair - Pass Details

Date: 05 December 2020
Orbit: 633 x 2499 km, 38.9° (Epoch: 23 January)

Event Time Altitude Azimuth Distance (km) Brightness Sun altitude
Rises 19:51:38 0° 260° (W) 5,877 13.0 -35.0°
Reaches altitude 10° 19:55:56 10° 256° (WSW) 4,665 12.2 -35.7°
Enters shadow 20:07:37 52° 187° (S) 1,967 9.4 -37.7°
Maximum altitude 20:07:41 52° 186° (S) 1,964 - -37.7°
Drops below altitude 10° 20:15:37 10° 112° (ESE) 3,207 - -39.0°
Sets 20:18:03 0° 107° (ESE) 3,958 - -39.4°
